{"data":{"norad_id":38652,"intl_designator":"2012-036A","name":"SES-5 (EGNOS/PRN 136)","alt_names":[],"object_type":"PAYLOAD","status":"ACTIVE","operator":null,"country":"SES","launch_date":"2012-07-09","launch_site_code":"TYMSC","launch_vehicle":null,"mission":null,"orbit_class":"UNKNOWN","rcs_meters":37.7081,"size_class":null,"mass_kg":null,"dimensions":null,"purposes":["comms","nav"],"wikipedia_slug":null,"has_3d_model":false,"image_url":null,"decayed_at":null,"tle_current":{"epoch":"2026-05-25T02:03:17.529120Z","epoch_age_seconds":66987,"freshness":"FRESH","line1":"1 38652U 12036A   26145.08561955  .00000031  00000+0  00000+0 0  9995","line2":"2 38652   0.0517 306.9145 0001982 111.6351 219.9280  1.00272696 44221","mean_motion":1.00272696,"eccentricity":0.0001982,"inclination_deg":0.0517,"raan_deg":306.9145,"arg_perigee_deg":111.6351,"mean_anomaly_deg":219.928,"bstar":0,"rev_number":4422,"period_min":1436.083856766,"perigee_km":35777.982577496,"apogee_km":35794.696576011,"semimajor_km":42164.476576754,"source":"CELESTRAK","updated_at":"2026-05-25T13:38:24.338775Z"}}}